Time,TemperatureF,DewpointF,PressureIn,WindDirection,WindDirectionDegrees,WindSpeedMPH,WindSpeedGustMPH,Humidity,HourlyPrecipIn,Conditions,Clouds,dailyrainin,SoftwareType,DateUTC
2013-05-15 00:01:00,69.7,61.4,30.16,NNE,28,0.0,0.0,75,0.00,CLR,,0.00,WeatherDisplay:10.37,2013-05-15 04:01:00,
2013-05-15 00:06:00,69.5,60.5,30.16,NNE,28,0.0,0.0,73,0.00,CLR,,0.00,WeatherDisplay:10.37,2013-05-15 04:06:00,
2013-05-15 00:11:00,69.5,62.0,30.16,NNE,28,0.0,0.0,77,0.00,CLR,,0.00,WeatherDisplay:10.37,2013-05-15 04:11:00,
2013-05-15 00:16:00,69.5,62.0,30.16,NNE,28,0.0,0.0,77,0.00,CLR,,0.00,WeatherDisplay:10.37,2013-05-15 04:16:00,
2013-05-15 00:21:00,69.4,62.2,30.16,NNE,28,0.0,0.0,78,0.00,CLR,,0.00,WeatherDisplay:10.37,2013-05-15 04:21:00,
2013-05-15 00:26:00,69.3,62.1,30.16,NNE,28,0.0,0.0,78,0.00,CLR,,0.00,WeatherDisplay:10.37,2013-05-15 04:26:00,
2013-05-15 00:31:00,69.3,62.9,30.16,NNE,28,0.0,0.0,80,0.00,CLR,,0.00,WeatherDisplay:10.37,2013-05-15 04:31:00,
2013-05-15 00:36:00,69.1,62.3,30.16,NNE,28,0.0,0.0,79,0.00,CLR,,0.00,WeatherDisplay:10.37,2013-05-15 04:36:00,
2013-05-15 00:41:00,69.0,62.2,30.16,NNE,28,0.0,0.0,79,0.00,CLR,,0.00,WeatherDisplay:10.37,2013-05-15 04:41:00,
2013-05-15 00:46:00,68.7,61.6,30.16,NNE,28,0.0,0.0,78,0.00,CLR,,0.00,WeatherDisplay:10.37,2013-05-15 04:46:00,
2013-05-15 00:51:00,68.6,61.1,30.16,NNE,28,0.0,0.0,77,0.00,CLR,,0.00,WeatherDisplay:10.37,2013-05-15 04:51:00,
2013-05-15 00:56:00,68.4,60.5,30.16,NNE,28,0.0,0.0,76,0.00,CLR,,0.00,WeatherDisplay:10.37,2013-05-15 04:56:00,
2013-05-15 01:01:00,68.2,60.0,30.16,NNE,28,0.0,0.0,75,0.00,CLR,,0.00,WeatherDisplay:10.37,2013-05-15 05:01:00,
2013-05-15 01:06:00,68.1,60.6,30.15,NNE,28,0.0,0.0,77,0.00,CLR,,0.00,WeatherDisplay:10.37,2013-05-15 05:06:00,
2013-05-15 01:11:00,68.0,60.9,30.15,NNE,28,0.3,1.2,78,0.00,CLR,,0.00,WeatherDisplay:10.37,2013-05-15 05:11:00,
2013-05-15 01:16:00,68.0,61.6,30.15,NNE,28,0.0,0.0,80,0.00,CLR,,0.00,WeatherDisplay:10.37,2013-05-15 05:16:00,
2013-05-15 01:21:00,67.9,61.1,30.15,NNE,28,0.0,0.0,79,0.00,CLR,,0.00,WeatherDisplay:10.37,2013-05-15 05:21:00,
2013-05-15 01:26:00,67.8,61.0,30.15,NNE,28,0.0,0.0,79,0.00,CLR,,0.00,WeatherDisplay:10.37,2013-05-15 05:26:00,
2013-05-15 01:31:00,67.8,61.4,30.14,NNE,28,0.0,0.0,80,0.00,CLR,,0.00,WeatherDisplay:10.37,2013-05-15 05:31:00,
2013-05-15 01:36:00,67.7,61.0,30.14,NNE,28,0.0,0.0,79,0.00,CLR,,0.00,WeatherDisplay:10.37,2013-05-15 05:36:00,
2013-05-15 01:41:00,67.7,61.3,30.14,NNE,28,0.0,0.0,80,0.00,CLR,,0.00,WeatherDisplay:10.37,2013-05-15 05:41:00,
2013-05-15 01:46:00,67.8,61.8,30.14,NNE,28,0.0,0.0,81,0.00,CLR,,0.00,WeatherDisplay:10.37,2013-05-15 05:46:00,
2013-05-15 01:51:00,67.7,61.3,30.14,NNE,28,0.0,0.0,80,0.00,CLR,,0.00,WeatherDisplay:10.37,2013-05-15 05:51:00,
2013-05-15 01:56:00,67.6,61.6,30.14,NNE,28,0.0,0.0,81,0.00,CLR,,0.00,WeatherDisplay:10.37,2013-05-15 05:56:00,
2013-05-15 02:02:00,67.6,61.6,30.13,NNE,28,0.0,0.0,81,0.00,CLR,,0.00,WeatherDisplay:10.37,2013-05-15 06:02:00,
2013-05-15 02:07:00,67.5,61.8,30.13,NNE,28,0.0,0.0,82,0.00,CLR,,0.00,WeatherDisplay:10.37,2013-05-15 06:07:00,
2013-05-15 02:12:00,67.4,62.4,30.13,NNE,28,0.0,0.0,84,0.00,CLR,,0.00,WeatherDisplay:10.37,2013-05-15 06:12:00,
2013-05-15 02:17:00,67.4,62.7,30.13,NNE,28,0.0,0.0,85,0.00,CLR,,0.00,WeatherDisplay:10.37,2013-05-15 06:17:00,
2013-05-15 02:22:00,67.3,62.3,30.13,NNE,28,0.0,0.0,84,0.00,CLR,,0.00,WeatherDisplay:10.37,2013-05-15 06:22:00,
2013-05-15 02:27:00,67.0,61.0,30.13,NNE,28,0.0,0.0,81,0.00,CLR,,0.00,WeatherDisplay:10.37,2013-05-15 06:27:00,
2013-05-15 02:32:00,66.9,60.9,30.13,NNE,28,0.0,0.0,81,0.00,CLR,,0.00,WeatherDisplay:10.37,2013-05-15 06:32:00,
2013-05-15 02:37:00,66.9,61.6,30.13,NNE,28,0.0,0.0,83,0.00,CLR,,0.00,WeatherDisplay:10.37,2013-05-15 06:37:00,
2013-05-15 02:42:00,67.0,62.0,30.13,NNE,28,0.0,0.0,84,0.00,CLR,,0.00,WeatherDisplay:10.37,2013-05-15 06:42:00,
2013-05-15 02:47:00,67.0,62.0,30.12,NNE,28,0.0,0.0,84,0.00,CLR,,0.00,WeatherDisplay:10.37,2013-05-15 06:47:00,
2013-05-15 02:52:00,66.9,61.6,30.13,NNE,28,0.0,0.0,83,0.00,CLR,,0.00,WeatherDisplay:10.37,2013-05-15 06:52:00,
2013-05-15 02:57:00,66.8,61.1,30.13,NNE,28,0.0,0.0,82,0.00,CLR,,0.00,WeatherDisplay:10.37,2013-05-15 06:57:00,
2013-05-15 03:02:00,66.6,60.9,30.12,NNE,28,0.0,0.0,82,0.00,CLR,,0.00,WeatherDisplay:10.37,2013-05-15 07:02:00,
2013-05-15 03:07:00,66.6,60.9,30.12,NNE,28,0.0,0.0,82,0.00,CLR,,0.00,WeatherDisplay:10.37,2013-05-15 07:07:00,
2013-05-15 03:12:00,66.5,60.8,30.12,NNE,28,0.0,0.0,82,0.00,CLR,,0.00,WeatherDisplay:10.37,2013-05-15 07:12:00,
2013-05-15 03:17:00,66.5,60.5,30.12,NNE,28,0.0,0.0,81,0.00,CLR,,0.00,WeatherDisplay:10.37,2013-05-15 07:17:00,
2013-05-15 03:22:00,66.4,60.4,30.12,NNE,28,0.0,0.0,81,0.00,CLR,,0.00,WeatherDisplay:10.37,2013-05-15 07:22:00,
2013-05-15 03:27:00,66.4,60.7,30.12,NNE,28,0.0,0.0,82,0.00,CLR,,0.00,WeatherDisplay:10.37,2013-05-15 07:27:00,
2013-05-15 11:39:00,77.9,63.4,30.17,ENE,70,5.3,12.7,61,0.00,CLR,,0.00,WeatherDisplay:10.37,2013-05-15 15:39:00,
2013-05-15 11:45:00,78.4,64.8,30.17,ENE,78,3.2,5.8,63,0.00,CLR,,0.00,WeatherDisplay:10.37,2013-05-15 15:45:00,
2013-05-15 11:50:00,78.8,63.3,30.17,ESE,107,8.3,10.4,59,0.00,CLR,,0.00,WeatherDisplay:10.37,2013-05-15 15:50:00,
2013-05-15 11:55:00,79.1,63.5,30.17,NE,39,4.3,5.8,59,0.00,CLR,,0.00,WeatherDisplay:10.37,2013-05-15 15:55:00,
2013-05-15 12:01:00,79.0,62.5,30.17,NNE,19,4.0,7.0,57,0.00,CLR,,0.00,WeatherDisplay:10.37,2013-05-15 16:01:00,
2013-05-15 12:06:00,78.5,63.0,30.17,NNE,26,8.3,8.3,59,0.00,CLR,,0.00,WeatherDisplay:10.37,2013-05-15 16:06:00,
2013-05-15 12:12:00,78.3,62.8,30.17,SE,129,4.6,6.9,59,0.00,CLR,,0.00,WeatherDisplay:10.37,2013-05-15 16:12:00,
2013-05-15 12:17:00,78.2,63.6,30.17,ENE,65,1.9,8.0,61,0.00,CLR,,0.00,WeatherDisplay:10.37,2013-05-15 16:17:00,
2013-05-15 12:23:00,78.2,62.2,30.17,East,98,5.0,10.4,58,0.00,CLR,,0.00,WeatherDisplay:10.37,2013-05-15 16:23:00,
2013-05-15 12:28:00,77.8,62.8,30.17,NE,39,6.1,8.1,60,0.00,CLR,,0.00,WeatherDisplay:10.37,2013-05-15 16:28:00,
2013-05-15 12:33:00,78.0,63.0,30.17,NE,34,5.7,8.1,60,0.00,CLR,,0.00,WeatherDisplay:10.37,2013-05-15 16:33:00,
2013-05-15 12:40:00,78.5,62.5,30.17,NNE,19,2.7,4.6,58,0.00,CLR,,0.00,WeatherDisplay:10.37,2013-05-15 16:40:00,
2013-05-15 12:45:00,78.6,62.1,30.17,North,10,4.3,8.1,57,0.00,CLR,,0.00,WeatherDisplay:10.37,2013-05-15 16:45:00,
2013-05-15 12:51:00,78.1,61.1,30.16,NNE,22,7.9,9.2,56,0.00,CLR,,0.00,WeatherDisplay:10.37,2013-05-15 16:51:00,
2013-05-15 12:57:00,78.2,61.7,30.16,ENE,57,8.6,11.5,57,0.00,CLR,,0.00,WeatherDisplay:10.37,2013-05-15 16:57:00,
2013-05-15 13:03:00,77.9,60.4,30.16,ENE,59,7.6,11.5,55,0.00,CLR,,0.00,WeatherDisplay:10.37,2013-05-15 17:03:00,
2013-05-15 13:09:00,78.3,60.8,30.16,NE,36,4.5,6.9,55,0.00,CLR,,0.00,WeatherDisplay:10.37,2013-05-15 17:09:00,
2013-05-15 13:14:00,78.5,61.0,30.16,ENE,75,6.1,9.2,55,0.00,CLR,,0.00,WeatherDisplay:10.37,2013-05-15 17:14:00,
2013-05-15 13:19:00,78.6,60.6,30.15,NNE,30,6.3,11.5,54,0.00,CLR,,0.00,WeatherDisplay:10.37,2013-05-15 17:19:00,
2013-05-15 13:24:00,78.9,59.8,30.15,NE,48,5.4,5.4,52,0.00,CLR,,0.00,WeatherDisplay:10.37,2013-05-15 17:24:00,
2013-05-15 13:29:00,79.0,60.4,30.16,NNE,21,4.6,8.1,53,0.00,CLR,,0.00,WeatherDisplay:10.37,2013-05-15 17:29:00,
2013-05-15 13:34:00,78.9,60.3,30.15,ESE,113,6.4,10.4,53,0.00,CLR,,0.00,WeatherDisplay:10.37,2013-05-15 17:34:00,
2013-05-15 13:40:00,78.9,60.8,30.15,ENE,73,4.2,11.5,54,0.00,CLR,,0.00,WeatherDisplay:10.37,2013-05-15 17:40:00,
2013-05-15 13:45:00,79.2,60.6,30.15,NNE,21,4.4,8.1,53,0.00,CLR,,0.00,WeatherDisplay:10.37,2013-05-15 17:45:00,
2013-05-15 13:50:00,79.0,60.4,30.15,NE,55,5.4,8.1,53,0.00,CLR,,0.00,WeatherDisplay:10.37,2013-05-15 17:50:00,
2013-05-15 13:56:00,78.8,59.7,30.15,ENE,70,5.3,10.4,52,0.00,CLR,,0.00,WeatherDisplay:10.37,2013-05-15 17:56:00,
2013-05-15 14:01:00,78.9,60.8,30.15,East,101,3.4,7.0,54,0.00,CLR,,0.00,WeatherDisplay:10.37,2013-05-15 18:01:00,
2013-05-15 14:06:00,78.7,59.6,30.15,East,98,3.8,6.9,52,0.00,CLR,,0.00,WeatherDisplay:10.37,2013-05-15 18:06:00,
2013-05-15 14:12:00,78.8,59.7,30.15,East,98,5.5,10.4,52,0.00,CLR,,0.00,WeatherDisplay:10.37,2013-05-15 18:12:00,
2013-05-15 14:17:00,78.9,60.3,30.15,East,101,5.6,8.1,53,0.00,CLR,,0.00,WeatherDisplay:10.37,2013-05-15 18:17:00,
2013-05-15 14:22:00,79.1,60.0,30.14,NNE,32,5.3,6.9,52,0.00,CLR,,0.00,WeatherDisplay:10.37,2013-05-15 18:22:00,
2013-05-15 14:28:00,79.3,60.1,30.14,ENE,59,7.4,9.2,52,0.00,CLR,,0.00,WeatherDisplay:10.37,2013-05-15 18:28:00,
2013-05-15 14:33:00,79.5,60.3,30.14,East,85,6.5,9.2,52,0.00,CLR,,0.00,WeatherDisplay:10.37,2013-05-15 18:33:00,
2013-05-15 14:38:00,79.8,61.1,30.14,North,355,2.1,3.5,53,0.00,CLR,,0.00,WeatherDisplay:10.37,2013-05-15 18:38:00,
2013-05-15 14:43:00,79.9,63.3,30.13,ESE,117,6.5,9.2,57,0.00,CLR,,0.00,WeatherDisplay:10.37,2013-05-15 18:43:00,
2013-05-15 14:48:00,79.4,60.8,30.13,East,93,6.6,8.1,53,0.00,CLR,,0.00,WeatherDisplay:10.37,2013-05-15 18:48:00,
2013-05-15 14:54:00,79.2,63.1,30.13,ENE,69,4.2,10.4,58,0.00,CLR,,0.00,WeatherDisplay:10.37,2013-05-15 18:54:00,
2013-05-15 14:59:00,78.9,62.4,30.13,East,94,3.6,9.2,57,0.00,CLR,,0.00,WeatherDisplay:10.37,2013-05-15 18:59:00,
2013-05-15 15:05:00,79.3,64.2,30.13,ENE,70,5.2,8.1,60,0.00,CLR,,0.00,WeatherDisplay:10.37,2013-05-15 19:05:00,
2013-05-15 15:10:00,79.2,64.1,30.12,East,94,7.3,7.3,60,0.00,CLR,,0.00,WeatherDisplay:10.37,2013-05-15 19:10:00,
2013-05-15 15:16:00,79.3,63.7,30.12,East,88,7.3,10.4,59,0.00,CLR,,0.00,WeatherDisplay:10.37,2013-05-15 19:16:00,
2013-05-15 15:21:00,79.2,64.1,30.12,SE,143,7.3,12.7,60,0.00,CLR,,0.00,WeatherDisplay:10.37,2013-05-15 19:21:00,
2013-05-15 15:26:00,79.2,64.6,30.12,North,5,7.1,9.2,61,0.00,CLR,,0.00,WeatherDisplay:10.37,2013-05-15 19:26:00,
2013-05-15 15:32:00,79.3,64.2,30.12,NE,47,7.9,9.2,60,0.00,CLR,,0.00,WeatherDisplay:10.37,2013-05-15 19:32:00,
2013-05-15 15:38:00,79.1,64.5,30.11,ENE,61,4.9,11.5,61,0.00,CLR,,0.00,WeatherDisplay:10.37,2013-05-15 19:38:00,
2013-05-15 15:43:00,79.2,64.1,30.11,ESE,119,7.0,12.7,60,0.00,CLR,,0.00,WeatherDisplay:10.37,2013-05-15 19:43:00,
2013-05-15 15:48:00,79.2,65.1,30.11,WNW,303,9.9,10.4,62,0.00,CLR,,0.00,WeatherDisplay:10.37,2013-05-15 19:48:00,
2013-05-15 15:53:00,78.7,64.1,30.11,East,88,4.4,11.5,61,0.00,CLR,,0.00,WeatherDisplay:10.37,2013-05-15 19:53:00,
2013-05-15 15:58:00,78.5,64.4,30.10,ESE,113,6.3,9.2,62,0.00,CLR,,0.00,WeatherDisplay:10.37,2013-05-15 19:58:00,
2013-05-15 16:04:00,78.3,64.7,30.10,NE,40,5.3,5.3,63,0.00,CLR,,0.00,WeatherDisplay:10.37,2013-05-15 20:04:00,
2013-05-15 16:09:00,77.8,64.2,30.10,East,86,7.3,11.5,63,0.00,CLR,,0.00,WeatherDisplay:10.37,2013-05-15 20:09:00,
2013-05-15 16:15:00,78.0,63.9,30.09,ENE,61,5.8,10.4,62,0.00,CLR,,0.00,WeatherDisplay:10.37,2013-05-15 20:15:00,
2013-05-15 16:21:00,78.0,64.4,30.09,East,94,9.5,11.5,63,0.00,CLR,,0.00,WeatherDisplay:10.37,2013-05-15 20:21:00,
2013-05-15 16:27:00,78.4,64.8,30.09,NE,40,7.1,12.7,63,0.00,CLR,,0.00,WeatherDisplay:10.37,2013-05-15 20:27:00,
2013-05-15 16:32:00,78.2,65.5,30.09,ESE,110,5.6,11.5,65,0.00,CLR,,0.00,WeatherDisplay:10.37,2013-05-15 20:32:00,
2013-05-15 16:37:00,78.4,64.8,30.09,NNE,31,3.9,5.8,63,0.00,CLR,,0.00,WeatherDisplay:10.37,2013-05-15 20:37:00,
2013-05-15 16:42:00,78.7,64.6,30.09,East,96,7.7,11.5,62,0.00,CLR,,0.00,WeatherDisplay:10.37,2013-05-15 20:42:00,
2013-05-15 16:48:00,78.4,63.8,30.09,ESE,107,6.9,11.5,61,0.00,CLR,,0.00,WeatherDisplay:10.37,2013-05-15 20:48:00,
2013-05-15 16:53:00,78.6,64.9,30.09,NE,38,3.8,8.1,63,0.00,CLR,,0.00,WeatherDisplay:10.37,2013-05-15 20:53:00,
2013-05-15 16:58:00,78.4,64.3,30.09,NE,50,6.8,10.4,62,0.00,CLR,,0.00,WeatherDisplay:10.37,2013-05-15 20:58:00,
2013-05-15 17:03:00,77.8,64.2,30.09,East,100,5.6,10.4,63,0.00,CLR,,0.00,WeatherDisplay:10.37,2013-05-15 21:03:00,
2013-05-15 17:08:00,78.0,64.4,30.09,East,99,6.2,8.1,63,0.00,CLR,,0.00,WeatherDisplay:10.37,2013-05-15 21:08:00,
2013-05-15 17:13:00,78.4,64.3,30.09,East,86,5.7,8.1,62,0.00,CLR,,0.00,WeatherDisplay:10.37,2013-05-15 21:13:00,
2013-05-15 17:19:00,78.5,64.4,30.09,East,88,6.9,13.8,62,0.00,CLR,,0.00,WeatherDisplay:10.37,2013-05-15 21:19:00,
2013-05-15 17:24:00,78.3,64.7,30.09,ENE,74,8.2,8.2,63,0.00,CLR,,0.00,WeatherDisplay:10.37,2013-05-15 21:24:00,
2013-05-15 17:29:00,78.3,64.2,30.09,ENE,67,6.6,9.2,62,0.00,CLR,,0.00,WeatherDisplay:10.37,2013-05-15 21:29:00,
2013-05-15 17:35:00,78.4,64.8,30.09,ENE,74,4.8,8.1,63,0.00,CLR,,0.00,WeatherDisplay:10.37,2013-05-15 21:35:00,
2013-05-15 17:40:00,78.4,64.3,30.09,NE,55,5.8,6.9,62,0.00,CLR,,0.00,WeatherDisplay:10.37,2013-05-15 21:40:00,
2013-05-15 17:46:00,78.2,64.6,30.09,NE,42,3.3,5.8,63,0.00,CLR,,0.00,WeatherDisplay:10.37,2013-05-15 21:46:00,
2013-05-15 17:51:00,78.2,65.0,30.09,SE,124,6.7,15.0,64,0.00,CLR,,0.00,WeatherDisplay:10.37,2013-05-15 21:51:00,
2013-05-15 17:56:00,78.0,65.3,30.09,East,90,4.3,8.0,65,0.00,CLR,,0.00,WeatherDisplay:10.37,2013-05-15 21:56:00,
2013-05-15 18:01:00,77.6,65.8,30.09,ESE,102,3.1,4.6,67,0.00,CLR,,0.00,WeatherDisplay:10.37,2013-05-15 22:01:00,
2013-05-15 18:07:00,77.1,65.3,30.09,SE,125,4.6,8.1,67,0.00,CLR,,0.00,WeatherDisplay:10.37,2013-05-15 22:07:00,
2013-05-15 18:12:00,76.8,65.0,30.09,East,89,6.3,6.3,67,0.00,CLR,,0.00,WeatherDisplay:10.37,2013-05-15 22:12:00,
2013-05-15 18:18:00,76.7,64.9,30.08,SE,127,8.7,11.5,67,0.00,CLR,,0.00,WeatherDisplay:10.37,2013-05-15 22:18:00,
2013-05-15 18:23:00,76.7,64.9,30.08,ENE,67,3.6,6.9,67,0.00,CLR,,0.00,WeatherDisplay:10.37,2013-05-15 22:23:00,
2013-05-15 18:29:00,76.7,64.9,30.08,ENE,57,5.4,9.2,67,0.00,CLR,,0.00,WeatherDisplay:10.37,2013-05-15 22:29:00,
2013-05-15 18:34:00,76.7,64.9,30.08,East,98,4.1,13.8,67,0.00,CLR,,0.00,WeatherDisplay:10.37,2013-05-15 22:34:00,
2013-05-15 18:39:00,76.8,65.0,30.08,ENE,78,5.5,9.2,67,0.00,CLR,,0.00,WeatherDisplay:10.37,2013-05-15 22:39:00,
2013-05-15 18:45:00,76.7,64.9,30.08,SE,131,7.8,11.5,67,0.00,CLR,,0.00,WeatherDisplay:10.37,2013-05-15 22:45:00,
2013-05-15 18:50:00,76.5,63.9,30.09,ESE,105,9.5,12.7,65,0.00,CLR,,0.00,WeatherDisplay:10.37,2013-05-15 22:50:00,
2013-05-15 18:55:00,76.4,64.6,30.09,SE,125,7.5,10.4,67,0.00,CLR,,0.00,WeatherDisplay:10.37,2013-05-15 22:55:00,
2013-05-15 19:02:00,76.4,63.8,30.09,ENE,65,7.4,9.2,65,0.00,CLR,,0.00,WeatherDisplay:10.37,2013-05-15 23:02:00,
2013-05-15 19:08:00,76.4,64.2,30.09,ESE,102,6.9,11.5,66,0.00,CLR,,0.00,WeatherDisplay:10.37,2013-05-15 23:08:00,
2013-05-15 19:14:00,76.4,64.2,30.09,East,86,6.1,8.1,66,0.00,CLR,,0.00,WeatherDisplay:10.37,2013-05-15 23:14:00,
2013-05-15 19:19:00,76.5,64.7,30.08,NE,55,7.4,7.4,67,0.00,CLR,,0.00,WeatherDisplay:10.37,2013-05-15 23:19:00,
2013-05-15 19:24:00,76.4,64.2,30.09,ENE,71,4.0,9.2,66,0.00,CLR,,0.00,WeatherDisplay:10.37,2013-05-15 23:24:00,
2013-05-15 19:30:00,76.2,64.0,30.08,East,82,5.8,9.2,66,0.00,CLR,,0.00,WeatherDisplay:10.37,2013-05-15 23:30:00,
2013-05-15 19:35:00,76.1,63.9,30.08,ENE,73,6.6,12.7,66,0.00,CLR,,0.00,WeatherDisplay:10.37,2013-05-15 23:35:00,
2013-05-15 19:40:00,76.0,63.8,30.09,ESE,117,9.1,11.5,66,0.00,CLR,,0.00,WeatherDisplay:10.37,2013-05-15 23:40:00,
2013-05-15 19:45:00,76.0,63.8,30.08,East,93,4.9,6.9,66,0.00,CLR,,0.00,WeatherDisplay:10.37,2013-05-15 23:45:00,
2013-05-15 19:51:00,75.9,63.7,30.08,ENE,57,8.2,11.5,66,0.00,CLR,,0.00,WeatherDisplay:10.37,2013-05-15 23:51:00,
2013-05-15 19:56:00,75.7,63.5,30.08,ESE,115,5.7,11.5,66,0.00,CLR,,0.00,WeatherDisplay:10.37,2013-05-15 23:56:00,
2013-05-15 20:01:00,75.7,63.5,30.09,East,92,2.5,6.9,66,0.00,CLR,,0.00,WeatherDisplay:10.37,2013-05-16 00:01:00,
2013-05-15 20:06:00,75.6,63.4,30.09,ENE,73,3.2,5.8,66,0.00,CLR,,0.00,WeatherDisplay:10.37,2013-05-16 00:06:00,
2013-05-15 20:11:00,75.5,63.3,30.09,NE,55,4.9,6.9,66,0.00,CLR,,0.00,WeatherDisplay:10.37,2013-05-16 00:11:00,
2013-05-15 20:17:00,75.4,63.7,30.09,ENE,58,4.7,6.9,67,0.00,CLR,,0.00,WeatherDisplay:10.37,2013-05-16 00:17:00,
2013-05-15 20:22:00,75.3,63.2,30.09,East,90,5.0,5.0,66,0.00,CLR,,0.00,WeatherDisplay:10.37,2013-05-16 00:22:00,
2013-05-15 20:27:00,75.3,62.7,30.09,East,96,4.6,6.0,65,0.00,CLR,,0.00,WeatherDisplay:10.37,2013-05-16 00:27:00,
2013-05-15 20:33:00,75.2,63.1,30.09,SE,135,2.9,3.5,66,0.00,CLR,,0.00,WeatherDisplay:10.37,2013-05-16 00:33:00,
2013-05-15 20:39:00,75.1,63.4,30.10,East,94,2.4,4.6,67,0.00,CLR,,0.00,WeatherDisplay:10.37,2013-05-16 00:39:00,
2013-05-15 20:44:00,75.0,62.9,30.09,ESE,111,1.3,3.5,66,0.00,CLR,,0.00,WeatherDisplay:10.37,2013-05-16 00:44:00,
2013-05-15 20:49:00,74.9,63.2,30.09,ESE,104,1.3,3.5,67,0.00,CLR,,0.00,WeatherDisplay:10.37,2013-05-16 00:49:00,
2013-05-15 20:54:00,74.8,62.7,30.09,ESE,117,3.0,4.6,66,0.00,CLR,,0.00,WeatherDisplay:10.37,2013-05-16 00:54:00,
2013-05-15 21:00:00,74.8,63.1,30.10,ESE,115,2.5,6.9,67,0.00,CLR,,0.00,WeatherDisplay:10.37,2013-05-16 01:00:00,
2013-05-15 21:05:00,74.7,63.4,30.10,ESE,121,2.8,5.8,68,0.00,CLR,,0.00,WeatherDisplay:10.37,2013-05-16 01:05:00,
2013-05-15 21:10:00,74.7,62.1,30.10,SE,144,3.9,8.1,65,0.00,CLR,,0.00,WeatherDisplay:10.37,2013-05-16 01:10:00,
2013-05-15 21:15:00,74.8,63.1,30.10,ESE,113,2.1,3.5,67,0.00,CLR,,0.00,WeatherDisplay:10.37,2013-05-16 01:15:00,
2013-05-15 21:21:00,74.6,62.9,30.10,ENE,76,2.3,5.8,67,0.00,CLR,,0.00,WeatherDisplay:10.37,2013-05-16 01:21:00,
2013-05-15 21:26:00,74.6,62.5,30.10,East,97,4.4,4.6,66,0.00,CLR,,0.00,WeatherDisplay:10.37,2013-05-16 01:26:00,
2013-05-15 21:31:00,74.6,62.9,30.10,East,83,2.4,4.6,67,0.00,CLR,,0.00,WeatherDisplay:10.37,2013-05-16 01:31:00,
2013-05-15 21:36:00,74.5,62.8,30.10,East,87,2.4,4.6,67,0.00,CLR,,0.00,WeatherDisplay:10.37,2013-05-16 01:36:00,
2013-05-15 21:42:00,74.3,62.6,30.10,East,89,3.8,5.8,67,0.00,CLR,,0.00,WeatherDisplay:10.37,2013-05-16 01:42:00,
2013-05-15 21:47:00,74.3,62.6,30.10,SE,126,3.6,4.6,67,0.00,CLR,,0.00,WeatherDisplay:10.37,2013-05-16 01:47:00,
2013-05-15 21:52:00,74.3,63.5,30.10,SE,124,0.3,1.2,69,0.00,CLR,,0.00,WeatherDisplay:10.37,2013-05-16 01:52:00,
2013-05-15 21:57:00,74.1,62.9,30.10,East,85,1.3,3.5,68,0.00,CLR,,0.00,WeatherDisplay:10.37,2013-05-16 01:57:00,
2013-05-15 22:03:00,74.1,62.4,30.10,East,90,5.0,8.1,67,0.00,CLR,,0.00,WeatherDisplay:10.37,2013-05-16 02:03:00,
2013-05-15 22:08:00,74.2,62.5,30.10,SE,127,1.9,3.5,67,0.00,CLR,,0.00,WeatherDisplay:10.37,2013-05-16 02:08:00,
2013-05-15 22:13:00,74.2,62.1,30.11,East,96,2.7,5.8,66,0.00,CLR,,0.00,WeatherDisplay:10.37,2013-05-16 02:13:00,
2013-05-15 22:18:00,74.2,62.1,30.11,ESE,104,4.5,8.1,66,0.00,CLR,,0.00,WeatherDisplay:10.37,2013-05-16 02:18:00,
2013-05-15 22:23:00,74.2,63.0,30.11,ENE,65,4.3,6.9,68,0.00,CLR,,0.00,WeatherDisplay:10.37,2013-05-16 02:23:00,
2013-05-15 22:28:00,74.2,62.1,30.11,East,90,1.5,3.5,66,0.00,CLR,,0.00,WeatherDisplay:10.37,2013-05-16 02:28:00,
2013-05-15 22:33:00,74.1,62.4,30.11,East,92,1.6,3.5,67,0.00,CLR,,0.00,WeatherDisplay:10.37,2013-05-16 02:33:00,
2013-05-15 22:38:00,74.0,62.3,30.11,ENE,66,0.6,3.5,67,0.00,CLR,,0.00,WeatherDisplay:10.37,2013-05-16 02:38:00,
2013-05-15 22:43:00,73.9,62.2,30.11,ESE,107,1.2,3.5,67,0.00,CLR,,0.00,WeatherDisplay:10.37,2013-05-16 02:43:00,
2013-05-15 22:48:00,73.7,62.1,30.11,ESE,103,2.4,4.6,67,0.00,CLR,,0.00,WeatherDisplay:10.37,2013-05-16 02:48:00,
2013-05-15 22:54:00,73.7,62.5,30.11,East,95,1.9,3.5,68,0.00,CLR,,0.00,WeatherDisplay:10.37,2013-05-16 02:54:00,
2013-05-15 22:59:00,73.6,62.0,30.11,East,95,0.6,2.3,67,0.00,CLR,,0.00,WeatherDisplay:10.37,2013-05-16 02:59:00,
2013-05-15 23:04:00,73.5,62.3,30.11,East,95,1.1,2.3,68,0.00,CLR,,0.00,WeatherDisplay:10.37,2013-05-16 03:04:00,
2013-05-15 23:10:00,73.3,62.1,30.11,East,94,0.3,2.3,68,0.00,CLR,,0.00,WeatherDisplay:10.37,2013-05-16 03:10:00,
2013-05-15 23:15:00,73.2,61.6,30.11,East,98,1.9,3.5,67,0.00,CLR,,0.00,WeatherDisplay:10.37,2013-05-16 03:15:00,
2013-05-15 23:20:00,73.2,61.6,30.11,ESE,115,3.3,4.6,67,0.00,CLR,,0.00,WeatherDisplay:10.37,2013-05-16 03:20:00,
2013-05-15 23:25:00,73.3,61.7,30.11,ESE,109,2.1,3.5,67,0.00,CLR,,0.00,WeatherDisplay:10.37,2013-05-16 03:25:00,
2013-05-15 23:31:00,73.3,61.7,30.11,ESE,105,0.8,2.3,67,0.00,CLR,,0.00,WeatherDisplay:10.37,2013-05-16 03:31:00,
2013-05-15 23:36:00,73.2,61.6,30.11,ESE,117,3.1,6.9,67,0.00,CLR,,0.00,WeatherDisplay:10.37,2013-05-16 03:36:00,
2013-05-15 23:41:00,73.3,61.7,30.11,East,82,2.2,3.5,67,0.00,CLR,,0.00,WeatherDisplay:10.37,2013-05-16 03:41:00,
2013-05-15 23:46:00,73.3,62.1,30.10,ESE,102,2.7,4.6,68,0.00,CLR,,0.00,WeatherDisplay:10.37,2013-05-16 03:46:00,
2013-05-15 23:51:00,73.3,62.1,30.10,ESE,112,1.6,3.5,68,0.00,CLR,,0.00,WeatherDisplay:10.37,2013-05-16 03:51:00,
2013-05-15 23:56:00,73.3,61.7,30.11,SE,143,2.8,3.5,67,0.00,CLR,,0.00,WeatherDisplay:10.37,2013-05-16 03:56:00,